When you browse on this site, cookies collect data to enhance your experience and personalize the content and advertising you see.
Visit our Privacy Policy to learn more. By continuing to use the site, you agree to this use of cookies and data.
  • In Österreich
  • Länderverzeichnis
  • Für 7 Tage
  • Wassertemperatur
  • Satellitenkarten
  • Wetterkarte
  • News
  • Widgets
  • user-avatar
    Anmelden

    Stündliche Wetter Swiechocin

    Heute, 16 Februar, Samstag

    Zeit Temperatur Niederschläge Wind Luftdruck Luftfeuchtigkeit
    00:00 +4°C° 0 mm 1 m/S 765 mmHg 80%
    01:00 +4°C° 0 mm 1 m/S 765 mmHg 78%
    02:00 +4°C° 0 mm 1 m/S 765 mmHg 78%
    03:00 +4°C° 0 mm 1 m/S 764 mmHg 78%
    04:00 +2°C° 0 mm 2 m/S 764 mmHg 77%
    05:00 +2°C° 0 mm 2 m/S 764 mmHg 77%
    06:00 +2°C° 0 mm 2 m/S 764 mmHg 77%
    07:00 +2°C° 0 mm 2 m/S 764 mmHg 76%
    08:00 +2°C° 0 mm 3 m/S 763 mmHg 70%
    09:00 +4°C° 0 mm 3 m/S 763 mmHg 65%
    10:00 +7°C° 0 mm 3 m/S 763 mmHg 59%
    11:00 +8°C° 0 mm 3 m/S 763 mmHg 55%
    12:00 +10°C° 0 mm 4 m/S 762 mmHg 51%
    13:00 +12°C° 0 mm 3 m/S 762 mmHg 46%
    14:00 +12°C° 0 mm 3 m/S 762 mmHg 48%
    15:00 +12°C° 0 mm 3 m/S 761 mmHg 50%
    16:00 +11°C° 0 mm 3 m/S 761 mmHg 52%
    17:00 +10°C° 0 mm 3 m/S 761 mmHg 57%
    18:00 +9°C° 0 mm 3 m/S 761 mmHg 62%
    19:00 +8°C° 0 mm 3 m/S 761 mmHg 68%
    20:00 +7°C° 0 mm 3 m/S 761 mmHg 70%
    21:00 +7°C° 0 mm 3 m/S 761 mmHg 72%
    22:00 +5°C° 0 mm 3 m/S 761 mmHg 75%
    23:00 +5°C° 0 mm 3 m/S 761 mmHg 77%

    Morgen, 17 Februar, Sonntag

    Zeit Temperatur Niederschläge Wind Luftdruck Luftfeuchtigkeit
    00:00 +4°C° 0 mm 3 m/S 761 mmHg 80%
    01:00 +4°C° 0 mm 3 m/S 761 mmHg 82%
    02:00 +3°C° 0 mm 3 m/S 761 mmHg 84%
    03:00 +3°C° 0 mm 3 m/S 761 mmHg 86%
    04:00 +2°C° 0 mm 3 m/S 761 mmHg 88%
    05:00 +3°C° 0 mm 2 m/S 761 mmHg 89%
    06:00 +3°C° 0 mm 2 m/S 761 mmHg 90%
    07:00 +2°C° 0 mm 2 m/S 761 mmHg 91%
    08:00 +4°C° 0 mm 2 m/S 761 mmHg 86%
    09:00 +5°C° 0 mm 2 m/S 761 mmHg 80%
    10:00 +5°C° 0 mm 3 m/S 762 mmHg 75%
    11:00 +8°C° 0 mm 2 m/S 761 mmHg 70%
    12:00 +9°C° 0 mm 2 m/S 761 mmHg 65%
    13:00 +10°C° 0 mm 2 m/S 761 mmHg 60%
    14:00 +10°C° 0 mm 2 m/S 761 mmHg 61%
    15:00 +11°C° 0 mm 1 m/S 761 mmHg 62%
    16:00 +11°C° 0 mm 1 m/S 761 mmHg 63%
    17:00 +10°C° 0 mm 1 m/S 761 mmHg 67%
    18:00 +9°C° 0 mm 1 m/S 761 mmHg 71%
    19:00 +8°C° 0 mm 1 m/S 761 mmHg 75%
    20:00 +7°C° 0 mm 1 m/S 760 mmHg 76%
    21:00 +7°C° 0 mm 1 m/S 760 mmHg 77%
    22:00 +6°C° 0 mm 1 m/S 760 mmHg 79%
    23:00 +5°C° 0 mm 2 m/S 760 mmHg 79%

    übermorgen, 18 Februar, Montag

    Zeit Temperatur Niederschläge Wind Luftdruck Luftfeuchtigkeit
    00:00 +4°C° 0 mm 2 m/S 760 mmHg 80%
    01:00 +4°C° 0 mm 2 m/S 760 mmHg 80%
    02:00 +4°C° 0 mm 2 m/S 760 mmHg 80%
    03:00 +3°C° 0 mm 2 m/S 759 mmHg 79%
    04:00 +3°C° 0 mm 2 m/S 759 mmHg 79%
    05:00 +3°C° 0 mm 2 m/S 759 mmHg 79%
    06:00 +3°C° 0 mm 2 m/S 759 mmHg 79%
    07:00 +2°C° 0 mm 2 m/S 759 mmHg 80%
    08:00 +4°C° 0 mm 2 m/S 759 mmHg 74%
    09:00 +5°C° 0 mm 2 m/S 759 mmHg 69%
    10:00 +6°C° 0 mm 2 m/S 759 mmHg 63%
    11:00 +8°C° 0 mm 2 m/S 759 mmHg 59%
    12:00 +9°C° 0 mm 2 m/S 758 mmHg 54%
    13:00 +10°C° 0 mm 3 m/S 758 mmHg 49%
    14:00 +10°C° 0 mm 2 m/S 758 mmHg 51%
    15:00 +10°C° 0 mm 2 m/S 757 mmHg 52%
    16:00 +10°C° 0 mm 2 m/S 757 mmHg 53%
    17:00 +9°C° 0 mm 2 m/S 757 mmHg 57%
    18:00 +8°C° 0 mm 2 m/S 757 mmHg 61%
    19:00 +6°C° 0 mm 2 m/S 757 mmHg 66%
    20:00 +6°C° 0 mm 2 m/S 757 mmHg 68%
    21:00 +5°C° 0 mm 2 m/S 757 mmHg 70%
    22:00 +5°C° 0 mm 2 m/S 756 mmHg 72%
    23:00 +4°C° 0 mm 3 m/S 756 mmHg 72%

    19 Februar, Dienstag

    Zeit Temperatur Niederschläge Wind Luftdruck Luftfeuchtigkeit
    00:00 +3°C° 0 mm 3 m/S 756 mmHg 73%
    01:00 +3°C° 0 mm 3 m/S 756 mmHg 74%
    02:00 +3°C° 0 mm 3 m/S 756 mmHg 76%
    03:00 +3°C° 0 mm 3 m/S 755 mmHg 78%
    04:00 +2°C° 0 mm 3 m/S 755 mmHg 81%
    05:00 +2°C° 0 mm 3 m/S 755 mmHg 80%
    06:00 +2°C° 0 mm 3 m/S 755 mmHg 80%
    07:00 +2°C° 0 mm 3 m/S 754 mmHg 80%
    08:00 +3°C° 0 mm 4 m/S 754 mmHg 73%
    09:00 +5°C° 0 mm 4 m/S 754 mmHg 67%
    10:00 +6°C° 0 mm 5 m/S 754 mmHg 60%
    11:00 +7°C° 0 mm 5 m/S 754 mmHg 58%
    12:00 +8°C° 0 mm 5 m/S 754 mmHg 55%
    13:00 +10°C° 0 mm 6 m/S 753 mmHg 52%
    14:00 +9°C° 0.1 mm 6 m/S 753 mmHg 60%
    15:00 +8°C° 0.1 mm 6 m/S 753 mmHg 68%
    16:00 +8°C° 0.1 mm 6 m/S 753 mmHg 75%
    17:00 +7°C° 0.1 mm 5 m/S 754 mmHg 78%
    18:00 +6°C° 0.1 mm 4 m/S 754 mmHg 81%
    19:00 +5°C° 0.1 mm 4 m/S 754 mmHg 84%
    20:00 +5°C° 0 mm 4 m/S 755 mmHg 84%
    21:00 +4°C° 0 mm 4 m/S 755 mmHg 85%
    22:00 +4°C° 0 mm 4 m/S 756 mmHg 85%
    23:00 +4°C° 0 mm 4 m/S 756 mmHg 85%

    20 Februar, Mittwoch

    Zeit Temperatur Niederschläge Wind Luftdruck Luftfeuchtigkeit
    00:00 +4°C° 0 mm 4 m/S 756 mmHg 86%
    01:00 +2°C° 0 mm 5 m/S 756 mmHg 86%
    02:00 +3°C° 0 mm 4 m/S 756 mmHg 88%
    03:00 +3°C° 0 mm 4 m/S 756 mmHg 89%
    04:00 +1°C° 0 mm 4 m/S 757 mmHg 91%
    05:00 +1°C° 0 mm 4 m/S 757 mmHg 91%
    06:00 +1°C° 0 mm 4 m/S 757 mmHg 91%
    07:00 +1°C° 0 mm 4 m/S 757 mmHg 90%
    08:00 +1°C° 0 mm 5 m/S 758 mmHg 87%
    09:00 +2°C° 0 mm 5 m/S 758 mmHg 83%
    10:00 +3°C° 0 mm 5 m/S 759 mmHg 79%
    11:00 +5°C° 0 mm 5 m/S 759 mmHg 74%
    12:00 +5°C° 0 mm 5 m/S 759 mmHg 70%
    13:00 +6°C° 0 mm 5 m/S 759 mmHg 66%
    14:00 +6°C° 0 mm 5 m/S 759 mmHg 67%
    15:00 +6°C° 0 mm 4 m/S 759 mmHg 68%
    16:00 +6°C° 0 mm 4 m/S 759 mmHg 69%
    17:00 +7°C° 0 mm 3 m/S 759 mmHg 73%
    18:00 +7°C° 0 mm 3 m/S 760 mmHg 77%
    19:00 +5°C° 0 mm 3 m/S 760 mmHg 80%
    20:00 +5°C° 0 mm 3 m/S 760 mmHg 82%
    21:00 +5°C° 0 mm 3 m/S 760 mmHg 84%
    22:00 +4°C° 0 mm 3 m/S 760 mmHg 86%
    23:00 +4°C° 0 mm 3 m/S 760 mmHg 87%

    21 Februar, Donnerstag

    Zeit Temperatur Niederschläge Wind Luftdruck Luftfeuchtigkeit
    00:00 +4°C° 0 mm 3 m/S 760 mmHg 88%
    01:00 +4°C° 0 mm 3 m/S 760 mmHg 89%
    02:00 +4°C° 0.2 mm 3 m/S 760 mmHg 89%
    03:00 +4°C° 0.2 mm 3 m/S 760 mmHg 90%
    04:00 +4°C° 0.2 mm 3 m/S 760 mmHg 90%
    05:00 +4°C° 0.3 mm 3 m/S 760 mmHg 90%
    06:00 +4°C° 0.3 mm 3 m/S 760 mmHg 90%
    07:00 +4°C° 0.3 mm 3 m/S 760 mmHg 89%
    08:00 +4°C° 0 mm 4 m/S 760 mmHg 85%
    09:00 +5°C° 0 mm 4 m/S 760 mmHg 82%
    10:00 +6°C° 0 mm 4 m/S 760 mmHg 78%
    11:00 +6°C° 0 mm 4 m/S 759 mmHg 75%
    12:00 +7°C° 0 mm 5 m/S 759 mmHg 73%
    13:00 +8°C° 0 mm 5 m/S 759 mmHg 71%
    14:00 +7°C° 0.2 mm 5 m/S 759 mmHg 75%
    15:00 +7°C° 0.2 mm 4 m/S 759 mmHg 79%
    16:00 +7°C° 0.2 mm 4 m/S 759 mmHg 84%
    17:00 +6°C° 0.4 mm 4 m/S 759 mmHg 85%
    18:00 +6°C° 0.4 mm 4 m/S 759 mmHg 87%
    19:00 +6°C° 0.4 mm 4 m/S 759 mmHg 89%
    20:00 +6°C° 0.1 mm 4 m/S 759 mmHg 89%
    21:00 +6°C° 0.1 mm 4 m/S 759 mmHg 90%
    22:00 +6°C° 0.1 mm 4 m/S 759 mmHg 91%
    23:00 +6°C° 0.7 mm 4 m/S 759 mmHg 92%
    Mehr zeigen